Volver al catálogo

YAOGAN-35 04C

ActivoMilitarVLEO
NORAD 53526·PAYLOAD·🇨🇳 China

Lanzado Aug 19, 2022 desde Xichang Satellite Launch Center

Loading…

Próximos Pases (próximas 24 horas)

TLE

ActualizadoSource: Space-Track

Época: Sep 14, 2026, 23:25 UTC

1 53526U 22100E   26257.97606257  .00006646  00000-0  27886-3 0  9996
2 53526  34.9943 231.9061 0008596 154.9659 205.1474 15.22762257226657

Sigue YAOGAN-35 04C en tiempo real con AllMySat

Download on the App Store